Time,TemperatureF,DewpointF,PressureIn,WindDirection,WindDirectionDegrees,WindSpeedMPH,WindSpeedGustMPH,Humidity,HourlyPrecipIn,Conditions,Clouds,dailyrainin,SolarRadiationWatts/m^2,SoftwareType,DateUTC
2013-02-23 00:01:00,20.0,17.0,-100.00,NNW,336,3.0,4.0,88,0.00,,,0.09,1.000000,,2013-02-23 06:01:00,
2013-02-23 00:32:00,14.0,12.0,-100.00,West,265,1.0,4.0,90,0.00,,,0.09,1.000000,,2013-02-23 06:32:00,
2013-02-23 00:42:00,14.0,12.0,-100.00,West,265,1.0,4.0,90,0.00,,,0.09,1.000000,,2013-02-23 06:42:00,
2013-02-23 00:52:00,14.0,12.0,-100.00,West,265,1.0,4.0,90,0.00,,,0.09,1.000000,,2013-02-23 06:52:00,
2013-02-23 01:01:00,14.0,12.0,-100.00,West,265,1.0,4.0,90,0.00,,,0.09,1.000000,,2013-02-23 07:01:00,
2013-02-23 01:32:00,15.0,13.0,-100.00,SSE,168,1.0,3.0,91,0.00,,,-99.99,1.000000,,2013-02-23 07:32:00,
2013-02-23 01:42:00,15.0,13.0,-100.00,SSE,168,1.0,3.0,91,0.00,,,-99.99,1.000000,,2013-02-23 07:42:00,
2013-02-23 01:52:00,15.0,13.0,-100.00,SSE,168,1.0,3.0,91,0.00,,,-99.99,1.000000,,2013-02-23 07:52:00,
2013-02-23 02:01:00,15.0,13.0,-100.00,SSE,168,1.0,3.0,91,0.00,,,-99.99,1.000000,,2013-02-23 08:01:00,
2013-02-23 02:32:00,14.0,12.0,-100.00,SW,215,1.0,2.0,90,0.00,,,0.09,1.000000,,2013-02-23 08:32:00,
2013-02-23 02:42:00,14.0,12.0,-100.00,SW,215,1.0,2.0,90,0.00,,,0.09,1.000000,,2013-02-23 08:42:00,
2013-02-23 02:52:00,14.0,12.0,-100.00,SW,215,1.0,2.0,90,0.00,,,0.09,1.000000,,2013-02-23 08:52:00,
2013-02-23 03:01:00,14.0,12.0,-100.00,SW,215,1.0,2.0,90,0.00,,,0.09,1.000000,,2013-02-23 09:01:00,
2013-02-23 03:32:00,13.0,10.0,-100.00,NNW,338,1.0,3.0,89,0.00,,,0.09,1.000000,,2013-02-23 09:32:00,
2013-02-23 03:42:00,13.0,10.0,-100.00,NNW,338,1.0,3.0,89,0.00,,,0.09,1.000000,,2013-02-23 09:42:00,
2013-02-23 03:52:00,13.0,10.0,-100.00,NNW,338,1.0,3.0,89,0.00,,,0.09,1.000000,,2013-02-23 09:52:00,
2013-02-23 04:01:00,13.0,10.0,-100.00,NNW,338,1.0,3.0,89,0.00,,,0.09,1.000000,,2013-02-23 10:01:00,
2013-02-23 04:32:00,13.0,10.0,-100.00,WNW,291,1.0,3.0,88,0.00,,,0.09,1.000000,,2013-02-23 10:32:00,
2013-02-23 04:42:00,13.0,10.0,-100.00,WNW,291,1.0,3.0,88,0.00,,,0.09,1.000000,,2013-02-23 10:42:00,
2013-02-23 04:52:00,13.0,10.0,-100.00,WNW,291,1.0,3.0,88,0.00,,,0.09,1.000000,,2013-02-23 10:52:00,
2013-02-23 05:02:00,13.0,10.0,-100.00,WNW,291,1.0,3.0,88,0.00,,,0.09,1.000000,,2013-02-23 11:02:00,
2013-02-23 05:32:00,11.0,8.0,-100.00,WNW,283,1.0,2.0,88,0.00,,,0.09,1.000000,,2013-02-23 11:32:00,
2013-02-23 05:42:00,11.0,8.0,-100.00,WNW,283,1.0,2.0,88,0.00,,,0.09,1.000000,,2013-02-23 11:42:00,
2013-02-23 05:52:00,11.0,8.0,-100.00,WNW,283,1.0,2.0,88,0.00,,,0.09,1.000000,,2013-02-23 11:52:00,
2013-02-23 06:32:00,15.0,13.0,-100.00,WSW,254,2.0,3.0,92,-99.99,,,0.09,1.000000,,2013-02-23 12:32:00,
2013-02-23 06:42:00,15.0,13.0,-100.00,WSW,254,2.0,3.0,92,-99.99,,,0.09,1.000000,,2013-02-23 12:42:00,
2013-02-23 06:52:00,15.0,13.0,-100.00,WSW,254,2.0,3.0,92,-99.99,,,0.09,1.000000,,2013-02-23 12:52:00,
2013-02-23 07:01:00,15.0,13.0,-100.00,WSW,254,2.0,3.0,92,-99.99,,,0.09,1.000000,,2013-02-23 13:01:00,
2013-02-23 07:32:00,20.0,19.0,-100.00,West,279,5.0,7.0,94,0.00,,,-99.99,1.000000,,2013-02-23 13:32:00,
2013-02-23 07:42:00,20.0,19.0,-100.00,West,279,5.0,7.0,94,0.00,,,-99.99,1.000000,,2013-02-23 13:42:00,
2013-02-23 07:52:00,20.0,19.0,-100.00,West,279,5.0,7.0,94,0.00,,,-99.99,1.000000,,2013-02-23 13:52:00,
2013-02-23 08:02:00,20.0,19.0,-100.00,West,279,5.0,7.0,94,0.00,,,-99.99,1.000000,,2013-02-23 14:02:00,
2013-02-23 08:33:00,22.0,21.0,-100.00,West,281,4.0,6.0,94,0.00,,,0.09,21.000000,,2013-02-23 14:33:00,
2013-02-23 08:42:00,22.0,21.0,-100.00,West,281,4.0,6.0,94,0.00,,,0.09,21.000000,,2013-02-23 14:42:00,
2013-02-23 08:52:00,22.0,21.0,-100.00,West,281,4.0,6.0,94,0.00,,,0.09,21.000000,,2013-02-23 14:52:00,
2013-02-23 09:02:00,22.0,21.0,-100.00,West,281,4.0,6.0,94,0.00,,,0.09,21.000000,,2013-02-23 15:02:00,
2013-02-23 09:32:00,25.0,22.0,-100.00,WNW,290,5.0,7.0,88,0.00,,,0.09,162.000000,,2013-02-23 15:32:00,
2013-02-23 09:42:00,25.0,22.0,-100.00,WNW,290,5.0,7.0,88,0.00,,,0.09,162.000000,,2013-02-23 15:42:00,
2013-02-23 09:52:00,25.0,22.0,-100.00,WNW,290,5.0,7.0,88,0.00,,,0.09,162.000000,,2013-02-23 15:52:00,
2013-02-23 10:01:00,25.0,22.0,-100.00,WNW,290,5.0,7.0,88,0.00,,,0.09,162.000000,,2013-02-23 16:01:00,
2013-02-23 10:32:00,28.0,22.0,-100.00,NW,321,6.0,10.0,79,0.00,,,0.09,318.000000,,2013-02-23 16:32:00,
2013-02-23 10:42:00,28.0,22.0,-100.00,NW,321,6.0,10.0,79,0.00,,,0.09,318.000000,,2013-02-23 16:42:00,
2013-02-23 10:52:00,28.0,22.0,-100.00,NW,321,6.0,10.0,79,0.00,,,0.09,318.000000,,2013-02-23 16:52:00,
2013-02-23 11:01:00,28.0,22.0,-100.00,NW,321,6.0,10.0,79,0.00,,,0.09,318.000000,,2013-02-23 17:01:00,
2013-02-23 11:32:00,29.0,22.0,-100.00,NW,325,6.0,9.0,76,0.01,,,0.10,415.000000,,2013-02-23 17:32:00,
2013-02-23 11:42:00,29.0,22.0,-100.00,NW,325,6.0,9.0,76,0.01,,,0.10,415.000000,,2013-02-23 17:42:00,
2013-02-23 11:52:00,29.0,22.0,-100.00,NW,325,6.0,9.0,76,0.01,,,0.10,415.000000,,2013-02-23 17:52:00,
2013-02-23 12:01:00,29.0,22.0,-100.00,NW,325,6.0,9.0,76,0.01,,,0.10,415.000000,,2013-02-23 18:01:00,
2013-02-23 12:32:00,33.0,23.0,-100.00,NNW,338,5.0,9.0,66,0.00,,,0.09,479.000000,,2013-02-23 18:32:00,
2013-02-23 12:42:00,33.0,23.0,-100.00,NNW,338,5.0,9.0,66,0.00,,,0.09,479.000000,,2013-02-23 18:42:00,
2013-02-23 12:52:00,33.0,23.0,-100.00,NNW,338,5.0,9.0,66,0.00,,,0.09,479.000000,,2013-02-23 18:52:00,
2013-02-23 13:01:00,33.0,23.0,-100.00,NNW,338,5.0,9.0,66,0.00,,,0.09,479.000000,,2013-02-23 19:01:00,
2013-02-23 13:32:00,36.0,23.0,-100.00,NW,324,5.0,10.0,60,0.00,,,0.04,611.000000,,2013-02-23 19:32:00,
2013-02-23 13:42:00,36.0,23.0,-100.00,NW,324,5.0,10.0,60,0.00,,,0.04,611.000000,,2013-02-23 19:42:00,
2013-02-23 13:52:00,36.0,23.0,-100.00,NW,324,5.0,10.0,60,0.00,,,0.04,611.000000,,2013-02-23 19:52:00,
2013-02-23 14:01:00,36.0,23.0,-100.00,NW,324,5.0,10.0,60,0.00,,,0.04,611.000000,,2013-02-23 20:01:00,
2013-02-23 14:32:00,33.0,22.0,-100.00,NW,319,7.0,10.0,63,0.00,,,0.03,477.000000,,2013-02-23 20:32:00,
2013-02-23 14:42:00,33.0,22.0,-100.00,NW,319,7.0,10.0,63,0.00,,,0.03,477.000000,,2013-02-23 20:42:00,
2013-02-23 14:53:00,33.0,22.0,-100.00,NW,319,7.0,10.0,63,0.00,,,0.03,477.000000,,2013-02-23 20:53:00,
2013-02-23 15:01:00,33.0,22.0,-100.00,NW,319,7.0,10.0,63,0.00,,,0.03,477.000000,,2013-02-23 21:01:00,
2013-02-23 15:32:00,33.0,20.0,-100.00,NNW,331,7.0,11.0,59,0.00,,,0.01,308.000000,,2013-02-23 21:32:00,
2013-02-23 15:42:00,33.0,20.0,-100.00,NNW,331,7.0,11.0,59,0.00,,,0.01,308.000000,,2013-02-23 21:42:00,
2013-02-23 15:52:00,33.0,20.0,-100.00,NNW,331,7.0,11.0,59,0.00,,,0.01,308.000000,,2013-02-23 21:52:00,
2013-02-23 16:01:00,33.0,20.0,-100.00,NNW,331,7.0,11.0,59,0.00,,,0.01,308.000000,,2013-02-23 22:01:00,
2013-02-23 16:32:00,34.0,20.0,-100.00,WNW,295,7.0,11.0,57,0.00,,,0.01,356.000000,,2013-02-23 22:32:00,
2013-02-23 16:42:00,34.0,20.0,-100.00,WNW,295,7.0,11.0,57,0.00,,,0.01,356.000000,,2013-02-23 22:42:00,
2013-02-23 16:52:00,34.0,20.0,-100.00,WNW,295,7.0,11.0,57,0.00,,,0.01,356.000000,,2013-02-23 22:52:00,
2013-02-23 17:01:00,34.0,20.0,-100.00,WNW,295,7.0,11.0,57,0.00,,,0.01,356.000000,,2013-02-23 23:01:00,
2013-02-23 17:32:00,31.0,20.0,-100.00,NNW,338,5.0,12.0,63,0.00,,,0.01,136.000000,,2013-02-23 23:32:00,
2013-02-23 17:42:00,31.0,20.0,-100.00,NNW,338,5.0,12.0,63,0.00,,,0.01,136.000000,,2013-02-23 23:42:00,
2013-02-23 17:52:00,31.0,20.0,-100.00,NNW,338,5.0,12.0,63,0.00,,,0.01,136.000000,,2013-02-23 23:52:00,
2013-02-23 18:01:00,31.0,20.0,-100.00,NNW,338,5.0,12.0,63,0.00,,,0.01,136.000000,,2013-02-24 00:01:00,
2013-02-23 18:32:00,29.0,20.0,-100.00,NNW,345,6.0,8.0,69,0.00,,,0.01,15.000000,,2013-02-24 00:32:00,
2013-02-23 18:42:00,29.0,20.0,-100.00,NNW,345,6.0,8.0,69,0.00,,,0.01,15.000000,,2013-02-24 00:42:00,
2013-02-23 18:52:00,29.0,20.0,-100.00,NNW,345,6.0,8.0,69,0.00,,,0.01,15.000000,,2013-02-24 00:52:00,
2013-02-23 19:01:00,29.0,20.0,-100.00,NNW,345,6.0,8.0,69,0.00,,,0.01,15.000000,,2013-02-24 01:01:00,
2013-02-23 19:32:00,28.0,20.0,-100.00,NNW,343,4.0,8.0,71,0.00,,,0.01,1.000000,,2013-02-24 01:32:00,
2013-02-23 19:42:00,28.0,20.0,-100.00,NNW,343,4.0,8.0,71,0.00,,,0.01,1.000000,,2013-02-24 01:42:00,
2013-02-23 19:52:00,28.0,20.0,-100.00,NNW,343,4.0,8.0,71,0.00,,,0.01,1.000000,,2013-02-24 01:52:00,
2013-02-23 20:01:00,28.0,20.0,-100.00,NNW,343,4.0,8.0,71,0.00,,,0.01,1.000000,,2013-02-24 02:01:00,
2013-02-23 20:32:00,25.0,19.0,-100.00,NNW,328,4.0,5.0,76,0.00,,,0.01,1.000000,,2013-02-24 02:32:00,
2013-02-23 20:42:00,25.0,19.0,-100.00,NNW,328,4.0,5.0,76,0.00,,,0.01,1.000000,,2013-02-24 02:42:00,
2013-02-23 20:52:00,25.0,19.0,-100.00,NNW,328,4.0,5.0,76,0.00,,,0.01,1.000000,,2013-02-24 02:52:00,
2013-02-23 21:01:00,25.0,19.0,-100.00,NNW,328,4.0,5.0,76,0.00,,,0.01,1.000000,,2013-02-24 03:01:00,
2013-02-23 21:32:00,22.0,18.0,-100.00,NW,319,1.0,5.0,84,0.00,,,0.01,1.000000,,2013-02-24 03:32:00,
2013-02-23 21:42:00,22.0,18.0,-100.00,NW,319,1.0,5.0,84,0.00,,,0.01,1.000000,,2013-02-24 03:42:00,
2013-02-23 21:52:00,22.0,18.0,-100.00,NW,319,1.0,5.0,84,0.00,,,0.01,1.000000,,2013-02-24 03:52:00,
2013-02-23 22:01:00,22.0,18.0,-100.00,NW,319,1.0,5.0,84,0.00,,,0.01,1.000000,,2013-02-24 04:01:00,
2013-02-23 22:32:00,15.0,12.0,-100.00,WSW,247,0.0,2.0,89,0.00,,,0.01,1.000000,,2013-02-24 04:32:00,
2013-02-23 23:32:00,11.0,8.0,-100.00,NW,313,1.0,3.0,89,0.00,,,0.01,1.000000,,2013-02-24 05:32:00,